Regional Weather Roundup
Issued by NWS Bismarck, ND

Home | Current Version | Previous Version | Text Only | Print | Product List | Glossary On
Versions: 1 2 3 4 5 6 7 8 9 10 11 12 13 14 15 16 17 18 19 20 21 22 23 24 25 26 27 28 29 30 31 32 33 34 35 36 37 38 39 40 41 42 43 44 45 46 47 48 49 50
000
ASUS43 KBIS 180020
RWRBIS

NWR BROADCAST TEXT
NATIONAL WEATHER SERVICE BISMARCK ND
700 PM CDT FRI APR 17 2015

NOTE: "FAIR" INDICATES FEW OR NO CLOUDS BELOW 12,000 FEET WITH NO
SIGNIFICANT WEATHER AND/OR OBSTRUCTIONS TO VISIBILITY.


CITY           SKY/WX    TMP DP  RH WIND       PRES   REMARKS
WILLISTON      SUNNY     70  26  19 NE13      30.07S
MINOT          SUNNY     63  25  23 N15       30.09R
MINOT AFB      SUNNY     63  28  26 NE16      30.08R
BISMARCK       PTSUNNY   72  25  17 VRB3      30.06S
DICKINSON      MOSUNNY   68  19  15 NE6       30.06F
GARRISON         N/A     69  28  21 NE8       30.07S
HETTINGER ARPT PTSUNNY   66  19  16 CALM      30.09S
JAMESTOWN      PTSUNNY   72  24  16 N15       30.02S
BEACH          FAIR      66  18  15 E5        30.09S
CARRINGTON     FAIR      66  28  24 NE17      30.07R
CROSBY         FAIR      63  23  22 NE9       30.10R
HARVEY           N/A    N/A N/A N/A MISG        N/A
HAZEN          FAIR      68  25  19 NE7       30.07S
LINTON         FAIR      68  23  18 N5        30.07S
MANDAN         FAIR      68  25  19 CALM      30.07F
OAKES            N/A     72  23  16 N9        30.05S
RUGBY          FAIR      63  21  20 N12       30.09R
STANLEY        FAIR      64  21  19 NE6       30.10S
TIOGA          FAIR      64  21  19 NE10      30.12R
WATFORD CITY   FAIR      68  23  18 E7        30.05S
$$

CITY           SKY/WX    TMP DP  RH WIND       PRES   REMARKS
GRAND FORKS    SUNNY     65  21  18 N21G29    30.05R
GRAND FORKS AF SUNNY     65  20  18 NE21G31   30.06R
DEVILS LAKE    SUNNY     64  19  17 N15       30.06S
FARGO          SUNNY     74  21  13 NW13      30.00F
CANDO          FAIR      63  23  22 N12G17    30.08F
CAVALIER       FAIR      59  25  27 N21G28    30.09R
GRAFTON        FAIR      61  23  23 N20G28    30.08R
GWINNER        CLEAR     72  23  16 N6        30.05F
LANGDON        FAIR      57  27  30 NE20G25   30.10R
ROLLA          FAIR      59  27  29 NE15G22   30.10R
WALHALLA       FAIR      57  27  30 N17G25    30.11R
$$

CITY           SKY/WX    TMP DP  RH WIND       PRES   REMARKS
ABERDEEN       MOSUNNY   72  21  14 N8        30.05F
MOBRIDGE       MOSUNNY   70  24  17 CALM      30.05S
BUFFALO          N/A     65  28  24 NE7       30.04S
RAPID CITY     CLOUDY    52  39  61 SW6       30.12S
GLASGOW        SUNNY     70  26  19 S10       30.03F
SIDNEY         SUNNY     72  25  17 CALM      30.06F
WOLF POINT     SUNNY     71  26  18 S3        30.04F
GLENDIVE       SUNNY     66  21  18 S7        30.07F
MILES CITY     SUNNY     68  29  23 S13       30.04F
BAKER          PTSUNNY   64  29  26 S14       30.10R
$$

CITY           SKY/WX    TMP DP  RH WIND       PRES   REMARKS
BILLINGS       SUNNY     64  29  26 E6        30.05F
GREAT FALLS    SUNNY     68  27  21 SW9       29.98F
REGINA         SUNNY     61  23  23 E8        30.10F
ESTEVAN        SUNNY     61  23  23 NE6       30.10F
$$



USA.gov is the U.S. government's official web portal to all federal, state and local government web resources and services.